| time (UTC) | temp F | wind direction | speed MPH | gust MPH | rain 1hr in | rain 24hr in | rain mn in | humidity % | barometer mb |
| 20260503213102 | 90 | 0 | 0.0 | 0.0 | 0.00 | 0.00 | 0.00 | 50 | 974.0 |
| 20260503212038 | 92 | 0 | 0.0 | 0.0 | 0.00 | 0.00 | 0.00 | 48 | 974.0 |
| 20260503211012 | 92 | 0 | 0.0 | 0.0 | 0.00 | 0.00 | 0.00 | 48 | 974.0 |
| 20260503205947 | 92 | 0 | 0.0 | 0.0 | 0.00 | 0.00 | 0.00 | 48 | 974.0 |
| 20260503204920 | 92 | 0 | 0.0 | 0.0 | 0.00 | 0.00 | 0.00 | 48 | 974.0 |
| 20260503203855 | 92 | 0 | 0.0 | 0.0 | 0.00 | 0.00 | 0.00 | 49 | 974.0 |
| 20260503202829 | 93 | 0 | 0.0 | 0.0 | 0.00 | 0.00 | 0.00 | 48 | 974.0 |
| 20260503201804 | 93 | 0 | 0.0 | 0.0 | 0.00 | 0.00 | 0.00 | 49 | 974.0 |
| 20260503200738 | 92 | 0 | 0.0 | 0.0 | 0.00 | 0.00 | 0.00 | 49 | 974.0 |
| 20260503195712 | 93 | 0 | 0.0 | 0.0 | 0.00 | 0.00 | 0.00 | 47 | 974.0 |
| 20260503194646 | 93 | 0 | 0.0 | 0.0 | 0.00 | 0.00 | 0.00 | 47 | 974.0 |
| 20260503193620 | 92 | 0 | 0.0 | 0.0 | 0.00 | 0.00 | 0.00 | 46 | 974.0 |
| 20260503192554 | 93 | 0 | 0.0 | 0.0 | 0.00 | 0.00 | 0.00 | 45 | 974.0 |
| 20260503191529 | 94 | 0 | 0.0 | 0.0 | 0.00 | 0.00 | 0.00 | 45 | 974.0 |
| 20260503190503 | 93 | 0 | 0.0 | 0.0 | 0.00 | 0.00 | 0.00 | 45 | 974.0 |
| 20260503185437 | 94 | 0 | 0.0 | 0.0 | 0.00 | 0.00 | 0.00 | 45 | 974.0 |
| 20260503184412 | 94 | 0 | 0.0 | 0.0 | 0.00 | 0.00 | 0.00 | 46 | 974.0 |
| 20260503183347 | 95 | 0 | 0.0 | 0.0 | 0.00 | 0.00 | 0.00 | 45 | 974.0 |
| 20260503182320 | 94 | 0 | 0.0 | 0.0 | 0.00 | 0.00 | 0.00 | 46 | 974.0 |
| 20260503181256 | 94 | 0 | 0.0 | 0.0 | 0.00 | 0.00 | 0.00 | 45 | 974.0 |
| 20260503180230 | 95 | 0 | 0.0 | 0.0 | 0.00 | 0.00 | 0.00 | 44 | 974.0 |
| 20260503175203 | 95 | 0 | 0.0 | 0.0 | 0.00 | 0.00 | 0.00 | 43 | 974.0 |
| 20260503174137 | 95 | 0 | 0.0 | 0.0 | 0.00 | 0.00 | 0.00 | 44 | 974.0 |
| 20260503173111 | 95 | 0 | 0.0 | 0.0 | 0.00 | 0.00 | 0.00 | 43 | 974.0 |
| 20260503172045 | 96 | 0 | 0.0 | 0.0 | 0.00 | 0.00 | 0.00 | 43 | 974.0 |
| 20260503171019 | 96 | 0 | 0.0 | 0.0 | 0.00 | 0.00 | 0.00 | 42 | 974.0 |
| 20260503150605 | 97 | 0 | 0.0 | 0.0 | 0.00 | 0.00 | 0.00 | 42 | 974.0 |
| 20260503131125 | 100 | 0 | 0.0 | 0.0 | 0.00 | 0.00 | 0.00 | 37 | 972.0 |
| 20260503110612 | 104 | 0 | 0.0 | 0.0 | 0.00 | 0.00 | 0.00 | 32 | 970.0 |
| 20260503100115 | 104 | 0 | 0.0 | 0.0 | 0.00 | 0.00 | 0.00 | 32 | 970.0 |
| 20260503081133 | 107 | 0 | 0.0 | 0.0 | 0.00 | 0.00 | 0.00 | 26 | 971.0 |
| 20260503080107 | 110 | 0 | 0.0 | 0.0 | 0.00 | 0.00 | 0.00 | 26 | 971.0 |
| 20260503071921 | 108 | 0 | 0.0 | 0.0 | 0.00 | 0.00 | 0.00 | 28 | 972.0 |
| 20260503070854 | 107 | 0 | 0.0 | 0.0 | 0.00 | 0.00 | 0.00 | 28 | 972.0 |
| 20260503054515 | 105 | 0 | 0.0 | 0.0 | 0.00 | 0.00 | 0.00 | 30 | 974.0 |
| 20260503053445 | 108 | 0 | 0.0 | 0.0 | 0.00 | 0.00 | 0.00 | 28 | 974.0 |
| 20260503052419 | 107 | 0 | 0.0 | 0.0 | 0.00 | 0.00 | 0.00 | 29 | 974.0 |
| 20260503051352 | 108 | 0 | 0.0 | 0.0 | 0.00 | 0.00 | 0.00 | 28 | 974.0 |
| 20260503050325 | 106 | 0 | 0.0 | 0.0 | 0.00 | 0.00 | 0.00 | 30 | 974.0 |
| 20260503045259 | 106 | 0 | 0.0 | 0.0 | 0.00 | 0.00 | 0.00 | 29 | 975.0 |
| 20260503044234 | 106 | 0 | 0.0 | 0.0 | 0.00 | 0.00 | 0.00 | 30 | 975.0 |
| 20260503043209 | 105 | 0 | 0.0 | 0.0 | 0.00 | 0.00 | 0.00 | 30 | 975.0 |
| 20260503042145 | 103 | 0 | 0.0 | 0.0 | 0.00 | 0.00 | 0.00 | 32 | 975.0 |
| 20260503041119 | 105 | 0 | 0.0 | 0.0 | 0.00 | 0.00 | 0.00 | 31 | 975.0 |
| 20260503040054 | 105 | 0 | 0.0 | 0.0 | 0.00 | 0.00 | 0.00 | 30 | 975.0 |
| 20260503035029 | 104 | 0 | 0.0 | 0.0 | 0.00 | 0.00 | 0.00 | 32 | 975.0 |
| 20260503034003 | 103 | 0 | 0.0 | 0.0 | 0.00 | 0.00 | 0.00 | 32 | 975.0 |
| 20260503032939 | 103 | 0 | 0.0 | 0.0 | 0.00 | 0.00 | 0.00 | 32 | 976.0 |
| 20260503031914 | 101 | 0 | 0.0 | 0.0 | 0.00 | 0.00 | 0.00 | 34 | 976.0 |
| 20260503030849 | 102 | 0 | 0.0 | 0.0 | 0.00 | 0.00 | 0.00 | 33 | 976.0 |
| 20260503025822 | 100 | 0 | 0.0 | 0.0 | 0.00 | 0.00 | 0.00 | 34 | 976.0 |
| 20260503024107 | 101 | 0 | 0.0 | 0.0 | 0.00 | 0.00 | 0.00 | 35 | 976.0 |
| 20260503023043 | 100 | 0 | 0.0 | 0.0 | 0.00 | 0.00 | 0.00 | 35 | 976.0 |
| 20260503022017 | 100 | 0 | 0.0 | 0.0 | 0.00 | 0.00 | 0.00 | 35 | 976.0 |
| 20260503020953 | 98 | 0 | 0.0 | 0.0 | 0.00 | 0.00 | 0.00 | 37 | 976.0 |
| 20260503015926 | 99 | 0 | 0.0 | 0.0 | 0.00 | 0.00 | 0.00 | 37 | 976.0 |
| 20260503014900 | 97 | 0 | 0.0 | 0.0 | 0.00 | 0.00 | 0.00 | 39 | 976.0 |
| 20260503013835 | 96 | 0 | 0.0 | 0.0 | 0.00 | 0.00 | 0.00 | 40 | 976.0 |
| 20260503012809 | 97 | 0 | 0.0 | 0.0 | 0.00 | 0.00 | 0.00 | 39 | 976.0 |
| 20260503011743 | 96 | 0 | 0.0 | 0.0 | 0.00 | 0.00 | 0.00 | 40 | 975.0 |
| 20260503010717 | 95 | 0 | 0.0 | 0.0 | 0.00 | 0.00 | 0.00 | 41 | 975.0 |
| 20260503004604 | 94 | 0 | 0.0 | 0.0 | 0.00 | 0.00 | 0.00 | 43 | 975.0 |
| 20260503003540 | 94 | 0 | 0.0 | 0.0 | 0.00 | 0.00 | 0.00 | 43 | 975.0 |
| 20260503002515 | 94 | 0 | 0.0 | 0.0 | 0.00 | 0.00 | 0.00 | 43 | 975.0 |
| 20260503001445 | 93 | 0 | 0.0 | 0.0 | 0.00 | 0.00 | 0.00 | 44 | 975.0 |
| 20260503000415 | 93 | 0 | 0.0 | 0.0 | 0.00 | 0.00 | 0.00 | 44 | 975.0 |
| 20260502235348 | 92 | 0 | 0.0 | 0.0 | 0.00 | 0.00 | 0.00 | 45 | 974.0 |
| 20260502234323 | 92 | 0 | 0.0 | 0.0 | 0.00 | 0.00 | 0.00 | 46 | 974.0 |
| 20260502233258 | 91 | 0 | 0.0 | 0.0 | 0.00 | 0.00 | 0.00 | 49 | 974.0 |
| 20260502232233 | 92 | 0 | 0.0 | 0.0 | 0.00 | 0.00 | 0.00 | 47 | 974.0 |
| 20260502231208 | 91 | 0 | 0.0 | 0.0 | 0.00 | 0.00 | 0.00 | 48 | 974.0 |
| 20260502230143 | 92 | 0 | 0.0 | 0.0 | 0.00 | 0.00 | 0.00 | 47 | 974.0 |
| 20260502225118 | 91 | 0 | 0.0 | 0.0 | 0.00 | 0.00 | 0.00 | 48 | 974.0 |
| 20260502224053 | 92 | 0 | 0.0 | 0.0 | 0.00 | 0.00 | 0.00 | 46 | 974.0 |
| 20260502223028 | 93 | 0 | 0.0 | 0.0 | 0.00 | 0.00 | 0.00 | 46 | 974.0 |
| 20260502222004 | 93 | 0 | 0.0 | 0.0 | 0.00 | 0.00 | 0.00 | 46 | 974.0 |
| 20260502220939 | 93 | 0 | 0.0 | 0.0 | 0.00 | 0.00 | 0.00 | 44 | 973.0 |
| 20260502215914 | 93 | 0 | 0.0 | 0.0 | 0.00 | 0.00 | 0.00 | 44 | 973.0 |
| 20260502214848 | 94 | 0 | 0.0 | 0.0 | 0.00 | 0.00 | 0.00 | 43 | 973.0 |